TA2R-16 Weather Reports


time (UTC)temp
C
wind
direction
speed
KPH
gust
KPH
rain 1hr
cm
rain 24hr
cm
rain mn
cm
humidity
%
barometer
mb
20260906083025 38 0 0.0 0.0 0.00 0.00 0.00 26 1006.6
20260906080006 38 0 0.0 0.0 0.00 0.00 0.00 26 1006.6
20260906073004 38 0 0.0 0.0 0.00 0.00 0.00 24 1006.5
20260906070001 40 0 0.0 0.0 0.00 0.00 0.00 21 1006.2
20260906063002 41 0 0.0 0.0 0.00 0.00 0.00 19 1005.9
20260906060005 41 0 0.0 0.0 0.00 0.00 0.00 20 1005.6
20260906053004 40 0 0.0 0.0 0.00 0.00 0.00 22 1005.6
20260906050003 38 0 0.0 0.0 0.00 0.00 0.00 24 1005.5
20260906043019 36 0 0.0 0.0 0.00 0.00 0.00 28 1005.4
20260906040021 32 0 0.0 0.0 0.00 0.00 0.00 33 1005.1
20260906033012 31 0 0.0 0.0 0.00 0.00 0.00 36 1004.7
20260906030031 31 0 0.0 0.0 0.00 0.00 0.00 34 1004.7
20260906023024 32 0 0.0 0.0 0.00 0.00 0.00 33 1004.5
20260906020006 31 0 0.0 0.0 0.00 0.00 0.00 35 1004.5
20260906013034 31 0 0.0 0.0 0.00 0.00 0.00 35 1004.6
20260906010010 32 0 0.0 0.0 0.00 0.00 0.00 34 1004.4
20260906003016 32 0 0.0 0.0 0.00 0.00 0.00 35 1004.4
20260906000303 33 0 0.0 0.0 0.00 0.00 0.00 32 1004.5
20260905234721 32 0 0.0 0.0 0.00 0.00 0.00 34 1004.4
20260905233003 32 0 0.0 0.0 0.00 0.00 0.00 35 1004.6
20260905230004 32 0 0.0 0.0 0.00 0.00 0.00 34 1004.6
20260905223016 33 0 0.0 0.0 0.00 0.00 0.00 33 1004.7
20260905220017 32 0 0.0 0.0 0.00 0.00 0.00 34 1004.8
20260905213005 32 0 0.0 0.0 0.00 0.00 0.00 34 1005.0
20260905210005 32 0 0.0 0.0 0.00 0.00 0.00 34 1005.0
20260905203029 33 0 0.0 0.0 0.00 0.00 0.00 33 1005.2
20260905200005 33 0 0.0 0.0 0.00 0.00 0.00 34 1005.4
20260905193007 32 0 0.0 0.0 0.00 0.00 0.00 34 1005.4
20260905190015 33 0 0.0 0.0 0.00 0.00 0.00 33 1005.5
20260905183002 33 0 0.0 0.0 0.00 0.00 0.00 32 1005.6
20260905180002 33 0 0.0 0.0 0.00 0.00 0.00 31 1005.7
20260905173002 33 0 0.0 0.0 0.00 0.00 0.00 31 1005.4
20260905170002 34 0 0.0 0.0 0.00 0.00 0.00 29 1005.2
20260905163002 35 0 0.0 0.0 0.00 0.00 0.00 26 1004.9
20260905160004 36 0 0.0 0.0 0.00 0.00 0.00 24 1004.9
20260905153002 36 0 0.0 0.0 0.00 0.00 0.00 23 1005.0
20260905150002 36 0 0.0 0.0 0.00 0.00 0.00 21 1005.1
20260905143005 36 0 0.0 0.0 0.00 0.00 0.00 21 1005.1
20260905140005 36 0 0.0 0.0 0.00 0.00 0.00 21 1005.2
20260905133002 37 0 0.0 0.0 0.00 0.00 0.00 20 1005.3
20260905130001 37 0 0.0 0.0 0.00 0.00 0.00 21 1005.3
20260905123006 36 0 0.0 0.0 0.00 0.00 0.00 22 1005.5
20260905120002 37 0 0.0 0.0 0.00 0.00 0.00 22 1005.8
20260905113002 37 0 0.0 0.0 0.00 0.00 0.00 20 1005.9
20260905110004 37 0 0.0 0.0 0.00 0.00 0.00 22 1006.1
20260905103003 36 0 0.0 0.0 0.00 0.00 0.00 24 1006.3
20260905100002 36 0 0.0 0.0 0.00 0.00 0.00 24 1006.4
20260905093002 36 0 0.0 0.0 0.00 0.00 0.00 27 1006.5
20260905090004 37 0 0.0 0.0 0.00 0.00 0.00 27 1006.7